Regional Weather Roundup
Issued by NWS

Home | Current Version | Previous Version | Text Only | Print | Product List | Glossary Off
Versions: 1 2 3 4 5 6 7 8 9 10 11 12 13 14 15 16 17 18 19 20 21 22 23 24 25 26 27 28 29 30 31 32 33 34 35 36 37 38 39 40 41 42 43 44 45 46 47 48 49 50

000
ASUS43 KBIS 210631
RWRND
NORTH DAKOTA REGIONAL WEATHER ROUNDUP
NATIONAL WEATHER SERVICE EASTERN NORTH DAKOTA/GRAND FORKS ND
100 AM CDT MON MAY 21 2018

  NOTE: "FAIR" INDICATES FEW OR NO CLOUDS BELOW 12,000 FEET WITH NO
  SIGNIFICANT WEATHER AND/OR OBSTRUCTIONS TO VISIBILITY.

NDZ001>003-009>011-017-210700-
...NORTHWEST NORTH DAKOTA...

CITY           SKY/WX    TMP DP  RH WIND       PRES   REMARKS
WILLISTON      FAIR      57  37  47 S9        30.03R
6HR MIN TEMP:  57; 6HR MAX TEMP:  72;

MINOT          FAIR      52  35  52 SE8       30.07S
MINOT AFB      FAIR      49  34  57 S8        30.06R
6HR MIN TEMP:  46; 6HR MAX TEMP:  73;

$$

NDZ018>021-031>035-040>046-210700-
...SOUTHWEST NORTH DAKOTA...

CITY           SKY/WX    TMP DP  RH WIND       PRES   REMARKS
BISMARCK       FAIR      49  40  71 E3        30.10S
DICKINSON      FAIR      41  34  76 SE9       30.06S
GARRISON         N/A     45  35  68 SE3       30.08S
HETTINGER      FAIR      44  35  70 SE6       30.08F
$$

NDZ004>008-012>016-024-026-027-054-210700-
...NORTHEAST NORTH DAKOTA...

CITY           SKY/WX    TMP DP  RH WIND       PRES   REMARKS
GRAND FORKS    FAIR      48  38  68 S6        30.10F
GRAND FORKS AF FAIR      50  35  58 SW3       30.11S
DEVILS LAKE    FAIR      52  37  56 S6        30.12S
$$

NDZ022-023-025-028>030-036>039-047>053-210700-
...SOUTHEAST NORTH DAKOTA...

CITY           SKY/WX    TMP DP  RH WIND       PRES   REMARKS
JAMESTOWN      FAIR      49  41  74 E5        30.10S
FARGO          FAIR      51  42  71 E5        30.11F
WAHPETON       FAIR      52  30  43 E5        30.12F
$$




USA.gov is the U.S. government's official web portal to all federal, state and local government web resources and services.